This is the latest recevied weather packets stored in our database for station/object JS2QVS-13. If no packets are shown the sender has not sent any weather packets the latest 1 day(s).
| Time | Temp. | Humidity | Pressure | Rain* | Wind** | Luminosity | Snow |
|---|---|---|---|---|---|---|---|
| 1778010463 | 17.22° C | 60% | 1018.1 hPa | 0 mm | 2.68 m/s, 68° | - | - |
| 1778009863 | 17.22° C | 61% | 1017.9 hPa | 0 mm | 3.13 m/s, 63° | - | - |
| 1778009262 | 17.22° C | 61% | 1018.2 hPa | 0 mm | 2.68 m/s, 70° | - | - |
| 1778008662 | 17.22° C | 60% | 1018.2 hPa | 0 mm | 2.68 m/s, 71° | - | - |
| 1778008062 | 17.22° C | 61% | 1018.2 hPa | 0 mm | 2.24 m/s, 56° | - | - |
| 1778007462 | 16.67° C | 61% | 1018.1 hPa | 0 mm | 2.68 m/s, 74° | - | - |
| 1778006862 | 16.67° C | 61% | 1017.9 hPa | 0 mm | 2.68 m/s, 62° | - | - |
| 1778006262 | 16.67° C | 60% | 1018.2 hPa | 0 mm | 2.68 m/s, 69° | - | - |
| 1778005662 | 16.67° C | 60% | 1018.2 hPa | 0 mm | 2.68 m/s, 66° | - | - |
| 1778005061 | 16.67° C | 61% | 1018.1 hPa | 0 mm | 2.68 m/s, 64° | - | - |
| 1778004461 | 16.67° C | 61% | 1018 hPa | 0 mm | 2.68 m/s, 64° | - | - |
| 1778003863 | 16.67° C | 61% | 1017.9 hPa | 0 mm | 2.68 m/s, 65° | - | - |
| 1778003263 | 16.67° C | 61% | 1018 hPa | 0 mm | 3.13 m/s, 60° | - | - |
| 1778002663 | 16.67° C | 61% | 1017.9 hPa | 0 mm | 3.13 m/s, 65° | - | - |
| 1778002062 | 16.67° C | 61% | 1018 hPa | 0 mm | 3.13 m/s, 71° | - | - |
| 1778001462 | 16.67° C | 61% | 1018 hPa | 0 mm | 2.68 m/s, 64° | - | - |
| 1778000862 | 16.67° C | 61% | 1018.1 hPa | 0 mm | 3.13 m/s, 55° | - | - |
| 1778000262 | 16.67° C | 61% | 1017.9 hPa | 0 mm | 2.68 m/s, 72° | - | - |
| 1777999662 | 16.67° C | 60% | 1017.9 hPa | 0 mm | 3.13 m/s, 70° | - | - |
| 1777999062 | 16.67° C | 60% | 1018.1 hPa | 0 mm | 3.58 m/s, 71° | - | - |
| 1777998462 | 16.67° C | 60% | 1018.3 hPa | 0 mm | 3.13 m/s, 67° | - | - |
| 1777997863 | 16.67° C | 60% | 1018.4 hPa | 0 mm | 2.24 m/s, 65° | - | - |
| 1777997261 | 16.67° C | 60% | 1018.4 hPa | 0 mm | 2.68 m/s, 68° | - | - |
| 1777996661 | 16.67° C | 60% | 1018.3 hPa | 0 mm | 3.58 m/s, 76° | - | - |
| 1777996061 | 16.67° C | 60% | 1018.4 hPa | 0 mm | 3.13 m/s, 72° | - | - |
* Rain latest hour (hover to see other rain measurements)
** Current wind speed in m/s (hover to see current wind gust speed)